Location: M�nchen
(48.1404°N, 11.6043°E)
Time: 03:03:31
(UTC+01:00)

ISS - Pass Details

Date: 13 November 2017
Orbit: 402 x 407 km, 51.6° (Epoch: 22 November)

Event Time Altitude Azimuth Distance (km) Brightness Sun altitude
Exits shadow 06:35:12 10° 282° (WNW) 1,485 -1.7 -7.3°
Reaches altitude 10° 06:35:17 10° 282° (WNW) 1,457 -1.7 -7.3°
Maximum altitude 06:38:18 35° 214° (SW) 663 -2.9 -6.8°
Drops below altitude 10° 06:41:19 10° 146° (SSE) 1,450 -0.1 -6.4°
Sets 06:43:28 0° 138° (SE) 2,306 1.3 -6.0°
